Cloud_Cover
0 5 5 5 5 7 5 5 5 5 5 24 99 100 93 91 81 38 37 57 11 36 5 3 6 72 59 7 5 61 25 2 2 0 0 0 0 0 0 0 0 0 0 0 0
4 5 5 5 5 48 27 32 5 9 8 8 11 25 5 12 13 89 71 85 93 32 33 5 84 60 5 5 16 98 97 5 5 2 4 0 0 0 0 0 0 0 0 0 0
5 5 8 5 5 35 43 10 5 10 82 63 98 100 92 17 5 5 5 7 98 79 58 89 87 59 88 71 80 100 100 96 69 5 1 0 0 0 0 0 0 0 0 0 0
6 55 42 19 5 5 5 18 76 93 48 57 67 57 95 95 5 61 93 100 100 100 98 100 100 96 98 13 5 12 6 5 12 5 3 5 9 5 0 0 0 2 2 31 3
5 5 40 86 36 24 40 46 64 77 96 55 90 40 5 57 29 27 85 97 100 100 100 90 100 100 100 98 3 5 5 0 4 5 1 5 0 0 0 0 1 2 1 6 72
5 5 5 5 5 5 15 9 7 5 5 5 5 24 11 5 5 5 6 14 67 100 100 94 99 46 37 6 5 5 81 7 2 0 4 0 0 0 0 0 0 3 2 7 13
5 5 5 5 5 5 13 12 34 6 5 5 5 5 5 0 5 5 11 98 99 52 39 100 70 5 8 92 74 45 15 5 39 46 5 5 1 47 5 5 14 96 5 6 34
5 5 5 5 30 95 59 9 7 9 29 6 8 5 5 5 5 77 100 100 100 98 56 5 5 5 24 92 37 99 86 50 82 6 7 5 5 54 8 50 95 100 95 57 29
5 5 5 5 99 100 75 60 100 78 91 79 31 51 13 5 6 27 90 80 52 66 65 5 5 88 100 100 93 59 84 59 20 20 5 5 3 7 60 78 100 100 100 99 83
0 5 5 21 9 78 100 99 100 99 96 100 36 19 34 75 67 18 45 31 6 2 7 58 85 100 78 54 45 14 7 5 34 56 20 5 24 5 5 20 51 100 100 100 100
5 4 5 5 5 35 31 55 57 35 32 76 80 5 5 23 40 5 6 5 17 44 89 95 97 55 30 20 5 5 5 7 5 6 5 2 79 93 68 80 59 100 100 100 100
0 4 4 5 5 5 10 56 13 27 65 77 45 12 5 6 16 7 38 78 100 100 100 97 81 36 85 8 6 42 8 5 5 4 0 1 71 100 99 78 100 91 100 100 86
0 0 4 5 3 5 4 5 4 36 15 71 43 33 72 77 81 92 60 64 88 99 75 99 86 100 95 100 100 71 8 2 0 1 5 3 66 100 98 100 100 96 63 64 100
1 0 7 11 4 1 2 2 0 0 5 8 7 37 17 89 98 100 99 96 80 51 93 100 100 100 66 11 4 0 2 0 0 0 0 0 2 5 4 4 5 8 42 12 61
0 5 71 100 19 5 5 0 0 0 0 5 4 5 5 28 6 24 61 42 59 100 76 94 21 83 63 11 5 0 0 1 5 5 5 5 9 9 5 6 5 5 5 5 5
5 6 100 100 88 12 3 0 2 4 0 0 5 5 11 52 5 5 45 36 99 20 72 28 89 31 60 65 3 0 0 2 30 11 5 5 33 70 92 91 19 5 5 5 5
43 100 100 100 98 18 5 0 2 5 4 3 1 3 5 5 5 5 98 57 94 100 23 4 31 7 3 2 0 5 58 90 6 3 0 1 16 7 5 5 50 5 5 36 62
31 100 77 72 6 16 3 5 17 5 5 5 5 3 5 5 5 5 94 100 97 6 3 1 0 4 0 0 41 98 54 14 2 16 12 4 59 14 60 96 81 61 6 5 30
100 24 5 9 85 9 5 5 5 5 6 5 5 6 6 5 5 34 100 68 1 3 4 3 0 0 3 5 24 5 0 32 91 59 99 5 42 90 100 5 24 72 6 12 5
6 68 36 49 26 24 86 55 16 59 99 31 8 5 5 5 56 100 65 3 0 2 0 0 2 0 5 39 9 0 0 2 15 90 32 44 6 5 25 5 5 5 61 100 78
48 63 69 5 67 60 32 94 83 100 99 96 55 22 5 5 35 100 6 2 0 0 0 0 3 2 10 8 0 2 0 1 16 70 100 85 4 5 5 5 5 5 4 0 79
74 8 6 5 6 5 51 100 100 100 100 95 59 5 5 84 71 100 5 5 2 0 0 0 2 5 5 0 1 5 5 2 73 5 6 91 19 5 5 5 5 0 0 0 5
5 5 5 5 75 95 99 100 100 100 93 100 41 70 98 99 96 5 5 2 0 0 5 0 4 4 0 2 3 5 5 6 5 11 74 100 23 93 50 7 21 3 0 5 5
48 20 11 13 98 13 42 100 98 100 80 58 100 100 100 86 75 5 3 2 0 0 2 0 4 0 3 0 0 5 83 100 100 100 100 37 10 9 5 5 2 4 5 5 5
51 47 73 100 100 59 86 7 93 40 65 100 100 100 100 100 16 5 4 3 0 0 0 0 0 0 0 0 3 6 87 100 100 100 97 77 59 39 8 5 5 5 5 5 5
100 100 90 80 31 98 54 6 40 100 100 100 100 100 81 51 5 5 0 2 0 0 0 0 0 0 0 1 5 99 100 100 100 100 66 7 60 47 28 92 14 5 5 5 5
100 100 100 100 49 97 100 100 100 100 96 100 54 88 73 5 5 5 5 5 5 3 0 3 4 3 0 2 4 84 71 84 86 83 10 100 94 73 66 94 94 34 53 52 82